Weather in Toldzgun

Russia / Republic of North Ossetia — Alania     43°13′44″N   43°49′29″E
temp.,
°C
wind,
m/s
gust,
m/s
humid.,
%
clouds,
%
prec.,
mm/h
press.,
hPa
HPBL,
m
5 march, fri
fri500:00−5sw23650 0.0 102429
03:00−4sw22600 0.0 102324
06:00−4sw23550 0.0 102122
09:00+2nne11690 0.0 1020113
12:00+5se00673 0.0 1018304
15:00+5sw117311 0.0 1017248
18:000sw237927 0.0 102025
21:000sw346413 0.0 102229
6 march, sat
sat600:000sw44590 0.0 102133
03:000sw34570 0.0 102230
06:00+1sw445647 0.0 102142
09:00+6sw346329 0.0 101980
12:00+10ene12620 0.0 1016315
15:00+10se12591 0.0 1014355
18:00+5sw456097 0.0 101569
21:00+3sw575099 0.0 1016122
7 march, sun
sun700:00+3sw4555100 0.0 101698
03:00+1w116398 0.0 101732
06:00−3nne388957 0.6 1020616
09:00−3ne249479 3.1 1022410
12:00−2nne3472100 1.4 1022906
15:00−1ne2258100 1.8 10231088
18:00−4e1169100 0.1 102426
21:00−6sw127693 0.1 102626
8 march, mon
mon800:00−7wsw11750 0.0 102631
03:00−8sw22750 0.0 102545
06:00−8sw22730 0.0 102445
09:00−4ese12723 0.0 1022369
12:00−1ese226923 0.0 1019671
15:00+1ese126620 0.0 1017775
18:00−3s12779 0.0 101822
21:00−4wsw22764 0.0 102026
9 march, tue
tue900:00−5sw23699 0.0 102040
03:00−5sw236621 0.0 101933
06:00−6sw236217 0.0 101937
09:00−1ne11619 0.0 1017328
12:00+2ene21620 0.0 1015673
15:00+3ene226331 0.0 1014682
18:00−1wnw0171100 0.0 101627
21:00−3wsw236451 0.0 101842